Cote D IVoirian Star — A8SL4 — position and weather

sailwx.info

Track history (hours):
 
Tides and Currents Weather Stations Pressure Air Temp Water Temp Dewpoint Dewpoint Depression Visibility Wind Speed Wind Dir Waves Ship Positions

Cote D IVoirian Star

Last reported at 2015-Apr-02 23:16 UTC. Time now 2015-Apr-19 11:02 UTC.
Position N 07°57' W 014°25'.
Warning: this ship's position is 16 days out of date.

Length 185 m; draft 7.4 m.

Type: Cargo ship. MMSI: 636014241.

Date/timePositionNaut miles runAvg speedWind from/ knotsBaromVisibWave heightAir tempDewpointWater temp
2015-Apr-02 23:16N 07°57' W 014°25'1217.4
2015-Apr-02 22:33N 08°05' W 014°35'1817.7
2015-Apr-02 21:33N 08°17' W 014°47'1817.7
2015-Apr-02 20:33N 08°30' W 014°60'1817.7
2015-Apr-02 19:32N 08°43' W 015°13'1717.8
2015-Apr-02 18:33N 08°55' W 015°25'1717.5
2015-Apr-02 17:34N 09°08' W 015°38'1717.2
2015-Apr-02 16:33N 09°20' W 015°49'1717.5
2015-Apr-02 15:33N 09°33' W 016°01'1717.3
2015-Apr-02 14:33N 09°46' W 016°13'1817.6
2015-Apr-02 13:33N 09°59' W 016°25'64313.6
2015-Mar-31 14:18N 20°36' W 017°57'1417.9
2015-Mar-31 13:33N 20°49' W 017°58'1917.8
2015-Mar-31 12:31N 21°08' W 017°55'1717.5
2015-Mar-31 11:33N 21°24' W 017°52'1817.6
2015-Mar-31 10:33N 21°41' W 017°49'1817.3
2015-Mar-31 09:30N 21°59' W 017°45'1717.2
2015-Mar-31 08:31N 22°16' W 017°42'1717.1
2015-Mar-31 07:33N 22°32' W 017°38'1717.4
2015-Mar-31 06:33N 22°49' W 017°36'1817.3
2015-Mar-31 05:30N 23°07' W 017°33'1717.6
2015-Mar-31 04:33N 23°23' W 017°28'1817.5
2015-Mar-31 03:30N 23°41' W 017°24'1717.4
2015-Mar-31 02:31N 23°58' W 017°21'1917.6
2015-Mar-31 01:25N 24°17' W 017°16'3217.4
2015-Mar-30 23:33N 24°49' W 017°08'1717.2
2015-Mar-30 22:33N 25°06' W 017°04'14217.7
2015-Mar-30 14:33N 27°24' W 016°28'5717.6
2015-Mar-30 11:17N 28°17' W 016°04'1317.7
2015-Mar-30 10:33N 28°27' W 015°55'1817.7
2015-Mar-30 09:33N 28°41' W 015°42'1817.7
2015-Mar-30 08:33N 28°58' W 015°36'1817.5
2015-Mar-30 07:33N 29°14' W 015°30'1817.5
2015-Mar-30 06:33N 29°31' W 015°25'1717.6
2015-Mar-30 05:33N 29°48' W 015°20'1817.6
2015-Mar-30 04:33N 30°05' W 015°14'1717.3
2015-Mar-30 03:33N 30°22' W 015°09'1717.5
2015-Mar-30 02:33N 30°39' W 015°03'1817.7
2015-Mar-30 01:33N 30°56' W 014°58'4217.5
2015-Mar-29 23:11N 31°36' W 014°44'1117.7
2015-Mar-29 22:33N 31°47' W 014°41'1817.8
2015-Mar-29 21:33N 32°04' W 014°35'1817.6
2015-Mar-29 20:33N 32°20' W 014°29'1817.4
2015-Mar-29 19:33N 32°37' W 014°24'2317.3
2015-Mar-29 18:13N 32°60' W 014°16'1217.7
2015-Mar-29 17:32N 33°11' W 014°12'23317.6
2015-Mar-29 04:19N 36°55' W 012°55'2117.9
2015-Mar-29 03:10N 37°14' W 012°48'1917.5
2015-Mar-29 02:04N 37°33' W 012°41'1417.7
2015-Mar-29 01:18N 37°46' W 012°37'3817.7
2015-Mar-28 23:09N 38°23' W 012°23'4617.7
2015-Mar-28 20:33N 39°07' W 012°07'3617.6
2015-Mar-28 18:31N 39°41' W 011°55'72816.8
2015-Mar-26 23:07N 49°59' W 002°53'10617.8
2015-Mar-26 17:09N 50°27' W 000°13'1217.5
2015-Mar-26 16:29N 50°30' E 000°05'1616.8
2015-Mar-26 15:33N 50°34' E 000°29'1615.9
2015-Mar-26 14:33N 50°42' E 000°50'1615.5
2015-Mar-26 13:32N 50°52' E 001°10'1616.2
2015-Mar-26 12:34N 51°03' E 001°28'1413.8
2015-Mar-26 11:33N 51°13' E 001°44'1616.4
2015-Mar-26 10:33N 51°25' E 002°02'1616.0
2015-Mar-26 09:33N 51°23' E 002°27'1414.5
2015-Mar-26 08:33N 51°22' E 002°50'1515.2
2015-Mar-26 07:33N 51°25' E 003°14'1414.0
2015-Mar-26 06:33N 51°26' E 003°37'1111.3
2015-Mar-26 05:33N 51°21' E 003°53'6 6.3
2015-Mar-26 04:34N 51°23' E 004°02'9 9.0
2015-Mar-26 03:34N 51°21' E 004°16'5 4.8
2015-Mar-26 02:33N 51°16' E 004°17'0 0.5
2015-Mar-26 01:33N 51°16' E 004°16'1 0.8
2015-Mar-26 00:28N 51°16' E 004°15'0 0.0
2015-Mar-25 23:31N 51°16' E 004°15'0 0.0
2015-Mar-25 22:28N 51°16' E 004°15'0 0.0
2015-Mar-25 21:31N 51°16' E 004°15'0 0.0
2015-Mar-25 20:31N 51°16' E 004°15'0 0.0
2015-Mar-25 19:31N 51°16' E 004°15'0 0.0
2015-Mar-25 18:31N 51°16' E 004°15'0 0.0
2015-Mar-25 17:28N 51°16' E 004°15'0 0.0
2015-Mar-25 16:31N 51°16' E 004°15'0 0.0
2015-Mar-25 15:31N 51°16' E 004°15'0 0.0
2015-Mar-25 14:31N 51°16' E 004°15'0 0.0
2015-Mar-25 13:28N 51°16' E 004°15'0 0.0
2015-Mar-25 12:31N 51°16' E 004°15'0 0.0
2015-Mar-25 11:31N 51°16' E 004°15'0 0.0
2015-Mar-25 10:31N 51°16' E 004°15'0 0.0
2015-Mar-25 09:28N 51°16' E 004°15'0 0.0
2015-Mar-25 08:31N 51°16' E 004°15'0 0.0
2015-Mar-25 07:31N 51°16' E 004°15'0 0.0
2015-Mar-25 06:31N 51°16' E 004°15'0 0.0
2015-Mar-25 05:28N 51°16' E 004°15'0 0.0
2015-Mar-25 04:31N 51°16' E 004°15'0 0.0
2015-Mar-25 03:31N 51°16' E 004°15'0 0.0
2015-Mar-25 02:31N 51°16' E 004°15'0 0.0
2015-Mar-25 01:31N 51°16' E 004°15'0 0.0
2015-Mar-25 00:28N 51°16' E 004°15'0 0.0
2015-Mar-24 23:31N 51°16' E 004°15'0 0.0
2015-Mar-24 22:31N 51°16' E 004°15'0 0.0
2015-Mar-24 21:31N 51°16' E 004°15'0 0.0
2015-Mar-24 20:25N 51°16' E 004°15'0 0.0
2015-Mar-24 19:31N 51°16' E 004°15'0 0.0
2015-Mar-24 18:31N 51°16' E 004°15'0 0.0
2015-Mar-24 17:31N 51°16' E 004°15'0 0.0
2015-Mar-24 16:28N 51°16' E 004°15'0 0.0
2015-Mar-24 15:31N 51°16' E 004°15'0 0.0
2015-Mar-24 14:31N 51°16' E 004°15'0 0.0
2015-Mar-24 13:28N 51°16' E 004°15'0 0.0
2015-Mar-24 12:31N 51°16' E 004°15'0 0.0
2015-Mar-24 11:31N 51°16' E 004°15'0 0.0
2015-Mar-24 10:28N 51°16' E 004°15'0 0.0
2015-Mar-24 09:28N 51°16' E 004°15'0 0.0
2015-Mar-24 08:28N 51°16' E 004°15'0 0.0
2015-Mar-24 07:28N 51°16' E 004°15'0 0.0
2015-Mar-24 06:33N 51°16' E 004°15'0 0.0
2015-Mar-24 05:25N 51°16' E 004°15'0 0.0
2015-Mar-24 04:30N 51°16' E 004°15'0 0.0
2015-Mar-24 03:31N 51°16' E 004°15'0 0.0
2015-Mar-24 02:31N 51°16' E 004°15'0 0.0
2015-Mar-24 01:31N 51°16' E 004°15'0 0.0
2015-Mar-24 00:31N 51°16' E 004°15'0 0.0
2015-Mar-23 23:31N 51°16' E 004°15'  
Track history (hours):
 
Tides and Currents Weather Stations Pressure Air Temp Water Temp Dewpoint Dewpoint Depression Visibility Wind Speed Wind Dir Waves Ship Positions

Cote D IVoirian Star

Last reported at 2015-Apr-02 23:16 UTC. Time now 2015-Apr-19 11:02 UTC.
Position N 07°57' W 014°25'.
Warning: this ship's position is 16 days out of date.

Length 185 m; draft 7.4 m.

Type: Cargo ship. MMSI: 636014241.

Date/timePositionNaut miles runAvg speedWind from/ knotsBaromVisibWave heightAir tempDewpointWater temp
2015-Apr-02 23:16N 07°57' W 014°25'1217.4
2015-Apr-02 22:33N 08°05' W 014°35'1817.7
2015-Apr-02 21:33N 08°17' W 014°47'1817.7
2015-Apr-02 20:33N 08°30' W 014°60'1817.7
2015-Apr-02 19:32N 08°43' W 015°13'1717.8
2015-Apr-02 18:33N 08°55' W 015°25'1717.5
2015-Apr-02 17:34N 09°08' W 015°38'1717.2
2015-Apr-02 16:33N 09°20' W 015°49'1717.5
2015-Apr-02 15:33N 09°33' W 016°01'1717.3
2015-Apr-02 14:33N 09°46' W 016°13'1817.6
2015-Apr-02 13:33N 09°59' W 016°25'64313.6
2015-Mar-31 14:18N 20°36' W 017°57'1417.9
2015-Mar-31 13:33N 20°49' W 017°58'1917.8
2015-Mar-31 12:31N 21°08' W 017°55'1717.5
2015-Mar-31 11:33N 21°24' W 017°52'1817.6
2015-Mar-31 10:33N 21°41' W 017°49'1817.3
2015-Mar-31 09:30N 21°59' W 017°45'1717.2
2015-Mar-31 08:31N 22°16' W 017°42'1717.1
2015-Mar-31 07:33N 22°32' W 017°38'1717.4
2015-Mar-31 06:33N 22°49' W 017°36'1817.3
2015-Mar-31 05:30N 23°07' W 017°33'1717.6
2015-Mar-31 04:33N 23°23' W 017°28'1817.5
2015-Mar-31 03:30N 23°41' W 017°24'1717.4
2015-Mar-31 02:31N 23°58' W 017°21'1917.6
2015-Mar-31 01:25N 24°17' W 017°16'3217.4
2015-Mar-30 23:33N 24°49' W 017°08'1717.2
2015-Mar-30 22:33N 25°06' W 017°04'14217.7
2015-Mar-30 14:33N 27°24' W 016°28'5717.6
2015-Mar-30 11:17N 28°17' W 016°04'1317.7
2015-Mar-30 10:33N 28°27' W 015°55'1817.7
2015-Mar-30 09:33N 28°41' W 015°42'1817.7
2015-Mar-30 08:33N 28°58' W 015°36'1817.5
2015-Mar-30 07:33N 29°14' W 015°30'1817.5
2015-Mar-30 06:33N 29°31' W 015°25'1717.6
2015-Mar-30 05:33N 29°48' W 015°20'1817.6
2015-Mar-30 04:33N 30°05' W 015°14'1717.3
2015-Mar-30 03:33N 30°22' W 015°09'1717.5
2015-Mar-30 02:33N 30°39' W 015°03'1817.7
2015-Mar-30 01:33N 30°56' W 014°58'4217.5
2015-Mar-29 23:11N 31°36' W 014°44'1117.7
2015-Mar-29 22:33N 31°47' W 014°41'1817.8
2015-Mar-29 21:33N 32°04' W 014°35'1817.6
2015-Mar-29 20:33N 32°20' W 014°29'1817.4
2015-Mar-29 19:33N 32°37' W 014°24'2317.3
2015-Mar-29 18:13N 32°60' W 014°16'1217.7
2015-Mar-29 17:32N 33°11' W 014°12'23317.6
2015-Mar-29 04:19N 36°55' W 012°55'2117.9
2015-Mar-29 03:10N 37°14' W 012°48'1917.5
2015-Mar-29 02:04N 37°33' W 012°41'1417.7
2015-Mar-29 01:18N 37°46' W 012°37'3817.7
2015-Mar-28 23:09N 38°23' W 012°23'4617.7
2015-Mar-28 20:33N 39°07' W 012°07'3617.6
2015-Mar-28 18:31N 39°41' W 011°55'72816.8
2015-Mar-26 23:07N 49°59' W 002°53'10617.8
2015-Mar-26 17:09N 50°27' W 000°13'1217.5
2015-Mar-26 16:29N 50°30' E 000°05'1616.8
2015-Mar-26 15:33N 50°34' E 000°29'1615.9
2015-Mar-26 14:33N 50°42' E 000°50'1615.5
2015-Mar-26 13:32N 50°52' E 001°10'1616.2
2015-Mar-26 12:34N 51°03' E 001°28'1413.8
2015-Mar-26 11:33N 51°13' E 001°44'1616.4
2015-Mar-26 10:33N 51°25' E 002°02'1616.0
2015-Mar-26 09:33N 51°23' E 002°27'1414.5
2015-Mar-26 08:33N 51°22' E 002°50'1515.2
2015-Mar-26 07:33N 51°25' E 003°14'1414.0
2015-Mar-26 06:33N 51°26' E 003°37'1111.3
2015-Mar-26 05:33N 51°21' E 003°53'6 6.3
2015-Mar-26 04:34N 51°23' E 004°02'9 9.0
2015-Mar-26 03:34N 51°21' E 004°16'5 4.8
2015-Mar-26 02:33N 51°16' E 004°17'0 0.5
2015-Mar-26 01:33N 51°16' E 004°16'1 0.8
2015-Mar-26 00:28N 51°16' E 004°15'0 0.0
2015-Mar-25 23:31N 51°16' E 004°15'0 0.0
2015-Mar-25 22:28N 51°16' E 004°15'0 0.0
2015-Mar-25 21:31N 51°16' E 004°15'0 0.0
2015-Mar-25 20:31N 51°16' E 004°15'0 0.0
2015-Mar-25 19:31N 51°16' E 004°15'0 0.0
2015-Mar-25 18:31N 51°16' E 004°15'0 0.0
2015-Mar-25 17:28N 51°16' E 004°15'0 0.0
2015-Mar-25 16:31N 51°16' E 004°15'0 0.0
2015-Mar-25 15:31N 51°16' E 004°15'0 0.0
2015-Mar-25 14:31N 51°16' E 004°15'0 0.0
2015-Mar-25 13:28N 51°16' E 004°15'0 0.0
2015-Mar-25 12:31N 51°16' E 004°15'0 0.0
2015-Mar-25 11:31N 51°16' E 004°15'0 0.0
2015-Mar-25 10:31N 51°16' E 004°15'0 0.0
2015-Mar-25 09:28N 51°16' E 004°15'0 0.0
2015-Mar-25 08:31N 51°16' E 004°15'0 0.0
2015-Mar-25 07:31N 51°16' E 004°15'0 0.0
2015-Mar-25 06:31N 51°16' E 004°15'0 0.0
2015-Mar-25 05:28N 51°16' E 004°15'0 0.0
2015-Mar-25 04:31N 51°16' E 004°15'0 0.0
2015-Mar-25 03:31N 51°16' E 004°15'0 0.0
2015-Mar-25 02:31N 51°16' E 004°15'0 0.0
2015-Mar-25 01:31N 51°16' E 004°15'0 0.0
2015-Mar-25 00:28N 51°16' E 004°15'0 0.0
2015-Mar-24 23:31N 51°16' E 004°15'0 0.0
2015-Mar-24 22:31N 51°16' E 004°15'0 0.0
2015-Mar-24 21:31N 51°16' E 004°15'0 0.0
2015-Mar-24 20:25N 51°16' E 004°15'0 0.0
2015-Mar-24 19:31N 51°16' E 004°15'0 0.0
2015-Mar-24 18:31N 51°16' E 004°15'0 0.0
2015-Mar-24 17:31N 51°16' E 004°15'0 0.0
2015-Mar-24 16:28N 51°16' E 004°15'0 0.0
2015-Mar-24 15:31N 51°16' E 004°15'0 0.0
2015-Mar-24 14:31N 51°16' E 004°15'0 0.0
2015-Mar-24 13:28N 51°16' E 004°15'0 0.0
2015-Mar-24 12:31N 51°16' E 004°15'0 0.0
2015-Mar-24 11:31N 51°16' E 004°15'0 0.0
2015-Mar-24 10:28N 51°16' E 004°15'0 0.0
2015-Mar-24 09:28N 51°16' E 004°15'0 0.0
2015-Mar-24 08:28N 51°16' E 004°15'0 0.0
2015-Mar-24 07:28N 51°16' E 004°15'0 0.0
2015-Mar-24 06:33N 51°16' E 004°15'0 0.0
2015-Mar-24 05:25N 51°16' E 004°15'0 0.0
2015-Mar-24 04:30N 51°16' E 004°15'0 0.0
2015-Mar-24 03:31N 51°16' E 004°15'0 0.0
2015-Mar-24 02:31N 51°16' E 004°15'0 0.0
2015-Mar-24 01:31N 51°16' E 004°15'0 0.0
2015-Mar-24 00:31N 51°16' E 004°15'0 0.0
2015-Mar-23 23:31N 51°16' E 004°15'  

Dump ship's entire track history